Weather in Iba

Philippines     15°19′23″N   119°59′08″E
temp.,
°C
wind,
m/s
gust,
m/s
humid.,
%
clouds,
%
prec.,
mm/h
press.,
hPa
HPBL,
m
18 april, sun
sun1823:00+27n3373100 0.1 1010146
02:00+27ene2271100 0.1 1009108
05:00+26se2373100 0.0 1008193
08:00+28se1165100 0.0 1010375
11:00+29w436324 0.0 1009887
14:00+29wnw547015 0.3 1007669
17:00+28wnw4472100 0.4 1006666
20:00+27nw3377100 1.8 1008168
19 april, mon
mon1923:00+26nnw338194 2.2 1009143
02:00+26nne2280100 3.2 100799
05:00+26e2278100 0.0 1006113
08:00+28sse2268100 0.0 1007380
11:00+29sw4366100 0.0 1007777
14:00+29sw4368100 0.0 1005864
17:00+28wnw2271100 0.0 1005802
20:00+27nnw4478100 0.1 1006359
20 april, tue
tue2023:00+26n2278100 0.0 1007184
02:00+26ne1278100 0.0 1005156
05:00+25se117994 0.0 1005127
08:00+28sse2271100 0.0 1007555
11:00+29sw4366100 0.0 1007813
14:00+29wsw4468100 0.1 1005878
17:00+28wnw3370100 0.1 1005862
20:00+27nnw3476100 0.1 1006359
21 april, wed
wed2123:00+27n2377100 0.0 1007260
02:00+26nne2279100 0.0 1006184
05:00+25nne2279100 0.0 1005188
08:00+27nnw2370100 0.0 1007528
11:00+29wnw4366100 0.0 1007844
14:00+30nw6669100 0.1 1004846
17:00+29nw101173100 0.6 1003640
20:00+27nnw7977100 0.6 1005461
22 april, thu
thu2223:00+27n5680100 0.0 1007317
02:00+26n4582100 0.0 1005311
05:00+26n3482100 0.1 1005264
08:00+28nnw4572100 0.1 1007702
11:00+30nw7663100 0.0 10061123
14:00+30nw10106894 0.1 1004982
17:00+29nnw10117439 0.0 1004790
20:00+27nnw697786 0.0 1006458